Regional Weather Roundup
Issued by NWS

Home | Current Version | Previous Version | Graphics & Text | Print | Product List | Glossary On
Versions: 1 2 3 4 5 6 7 8 9 10 11 12 13 14 15 16 17 18 19 20 21 22 23 24 25 26 27
000
ASUS45 KPSR 282310
RWRAZ

ARIZONA HOURLY REGIONAL WEATHER ROUNDUP
NATIONAL WEATHER SERVICE PHOENIX AZ
400 PM MST TUE MAR 28 2017

NOTE: FAIR INDICATES FEW OR NO CLOUDS BELOW 12,000 FEET WITH NO
SIGNIFICANT WEATHER AND/OR OBSTRUCTIONS TO VISIBILITY.

AZZ001>003-036-290000-
NORTHWEST ARIZONA

CITY           SKY/WX    TMP DP  RH WIND       PRES   REMARKS
BULLHEAD CITY  SUNNY     77  21  12 N22G30    29.91F
KINGMAN        SUNNY     65   3   8 N18G28    29.98S
$$

AZZ004>008-015-016-018-290000-
NORTH CENTRAL ARIZONA

CITY           SKY/WX    TMP DP  RH WIND       PRES   REMARKS
GRAND CANYON   MOSUNNY   53  24  32 N10       29.97S
WILLIAMS       MOSUNNY   52  25  35 NW14      29.98S
PRESCOTT       MOSUNNY   62  24  23 N17G26    29.92F
FLAGSTAFF      MOSUNNY   49  23  36 N10       29.96R
PAYSON         CLOUDY    57  28  33 NW7G14    29.94S
PAGE           CLOUDY    65  25  22 N10       29.88S
$$

AZZ009>014-017-290000-
NORTHEAST ARIZONA

CITY           SKY/WX    TMP DP  RH WIND       PRES   REMARKS
WINSLOW        CLOUDY    57  29  34 NW16G24   29.90R
SAINT JOHNS    CLOUDY    45  40  82 W18G25    29.88R
WINDOW ROCK    PTSUNNY   48  35  60 NW15      29.86S
SHOW LOW       PTSUNNY   45  28  53 NW20G26   29.92R
$$

AZZ023-290000-
GREATER PHOENIX AREA

CITY           SKY/WX    TMP DP  RH WIND       PRES   REMARKS
PHOENIX        MOSUNNY   78  33  19 W15G22    29.80F
BUCKEYE        SUNNY     77  32  19 W12G18    29.83S
GLENDALE       MOSUNNY   79  32  18 S8G21     29.82F
LUKE AFB       SUNNY     79  33  19 W14G26    29.80S
DEER VALLEY    SUNNY     77  33  20 W14G23    29.80F
SCOTTSDALE     SUNNY     77  32  19 W10       29.83S
MESA-FALCON    MOSUNNY  N/A N/A N/A SW17G23   29.80S
MESA-GATEWAY   MOSUNNY   75  34  22 W15G23    29.84S
CHANDLER       MOSUNNY   77  32  19 SW9       29.82F
$$

AZZ027-028-290000-
SOUTHWEST MARICOPA COUNTY AND PINAL COUNTY

CITY           SKY/WX    TMP DP  RH WIND       PRES   REMARKS
CASA GRANDE    NOT AVBL
GILA BEND      FAIR     N/A N/A N/A W14         N/A
$$

AZZ503-504-507>509-290000-
SOUTHEAST ARIZONA

CITY           SKY/WX    TMP DP  RH WIND       PRES   REMARKS
TUCSON         MOSUNNY   70  29  21 NW12G23   29.89F
DAVIS-MONTHAN  SUNNY     69  31  24 NW14G22   29.87F
NOGALES        MOSUNNY   67  27  22 NW10G21   29.90F
SIERRA VISTA   SUNNY     60  26  27 W20G29    29.92F
DOUGLAS        PTSUNNY   64  25  22 NW24G35   29.88S
SAFFORD        MOSUNNY   65  31  28 NW14G23   29.81F
$$

AZZ020-021-025-026-031-290000-
SOUTHWEST ARIZONA

CITY           SKY/WX    TMP DP  RH WIND       PRES   REMARKS
YUMA           SUNNY     80  19  10 VRB5      29.87F
$$

CAZ031-033-041-043-047-048-061-290000-
SOUTHERN CALIFORNIA

CITY           SKY/WX    TMP DP  RH WIND       PRES   REMARKS
DOWNTOWN L.A.  SUNNY     76  36  23 VRB6      29.95F
L.A. AIRPORT   MOSUNNY   70  46  42 W15       29.96F
SAN DIEGO      MOSUNNY   69  46  43 NW13      29.98F
BURBANK        SUNNY     76  33  21 S10       29.94F
ONTARIO        MOSUNNY   78  27  15 W12       29.95F
RIVERSIDE      SUNNY     79  22  12 N13G22    29.94F
PALM SPRINGS   SUNNY     85  13   7 E10G21    29.92F
EL CENTRO NAS  SUNNY     81  10   7 N8G21     29.91F
IMPERIAL       SUNNY     80  26  13 NW8       29.89F
BLYTHE         SUNNY     81  20  10 NW18G29   29.88F
NEEDLES        SUNNY     79  21  11 NE24G33   29.91F
$$

NVZ020-UTZ003-290000-
SOUTHERN NEVADA-UTAH

CITY           SKY/WX    TMP DP  RH WIND       PRES   REMARKS
LAS VEGAS      MOSUNNY   72  11   9 N16G22    29.99F
SALT LAKE CITY MOSUNNY   54  31  41 NW20G26   30.14R
$$

NMZ009-TXZ055-290000-
NEW MEXICO-WEST TEXAS

CITY           SKY/WX    TMP DP  RH WIND       PRES   REMARKS
ALBUQUERQUE    PTSUNNY   47  37  68 NE16      29.81S
EL PASO        PTSUNNY   57  31  37 SW18G25   29.80F
$$


........................KEY........................
SKY/WX - SKY CONDITION/WEATHER
TMP    - TEMPERATURE IN FAHRENHEIT
DP     - DEW POINT IN FAHRENHEIT
RH     - RELATIVE HUMIDITY IN PERCENT
WIND   - DIRECTION AND SPEED IN MILES PER HOUR (MPH)
VRB    - VARIABLE WIND DIRECTION
PRES   - MEAN SEA LEVEL PRESSURE IN INCHES OF MERCURY
         F - FALLING PRESSURE   R - RISING PRESSURE
         S - STEADY PRESSURE
VSB    - VISIBILITY IN MILES
HX     - HEAT INDEX IN FAHRENHEIT
WCI    - WIND CHILL INDEX IN FAHRENHEIT
TC     - TEMPERATURE IN CELSIUS WHICH IS ALSO KNOWN AS
         TEMPERATURE IN CENTIGRADE
AFB    - AIR FORCE BASE
         LUKE AFB IS LUKE AIR FORCE BASE
         DAVIS-MONTHAN IS DAVIS-MONTHAN AIR FORCE BASE
NAS    - NAVAL AIR STATION
         EL CENTRO NAS IS EL CENTRO NAVAL AIR STATION
N/A    - NOT AVAILABLE





USA.gov is the U.S. government's official web portal to all federal, state and local government web resources and services.